Weather History for KLXN - April, 2014

Change the Weather History Date:

Saturday, April 26, 2014

  Actual Average Record
Temperature  
Mean Temperature 66 °F -  
Max Temperature 84 °F 60 °F 84 °F (2014)
Min Temperature 49 °F 37 °F 28 °F (2006)
Cooling Degree Days 1    
Growing Degree Days 16 (Base 50)    
Moisture  
Dew Point 47 °F    
Average Humidity 52    
Maximum Humidity 76    
Minimum Humidity 24    
Precipitation  
Precipitation 0.00 in - - ()
Sea Level Pressure  
Sea Level Pressure 29.48 in    
Wind  
Wind Speed 12 mph (SE)    
Max Wind Speed 25 mph    
Max Gust Speed 34 mph    
Visibility 10 miles    
Events      
Averages and records for this station are not official NWS values.
T = Trace of Precipitation, MM = Missing Value Source: NWS Daily Summary

Daily Weather History Graph

Daily Weather History Graph

Search for Another Location

Airport or City:

Trip Planner

Search our weather history database for the weather conditions in past years. The results will help you decide how hot, cold, wet, or windy it might be!

Date:

Astronomy

Apr. 26, 2014 Rise Set
Actual Time 6:44 AM CDT 8:30 PM CDT
Civil Twilight 6:14 AM CDT 8:59 PM CDT
Nautical Twilight 5:39 AM CDT 9:35 PM CDT
Astronomical Twilight 5:01 AM CDT 10:13 PM CDT
Moon 5:10 AM CDT (4/26) 5:59 PM CDT (4/26)
Length of Visible Light 14h 44m
Length of Day
13h 46m
Waning Crescent, 8% of the Moon is Illuminated
Apr 26
Waning Crescent
Apr 29
New
May 6
First Quarter
May 14
Full
May 21
Last Quarter

Hourly Weather History & Observations

Time (CDT) Temp. Heat Index Dew Point Humidity Pressure Visibility Wind Dir Wind Speed Gust Speed Precip Events Conditions
12:15 AM 52.3 °F - 39.4 °F 61% 29.71 in 10.0 mi East 8.1 mph - N/A   Clear
12:35 AM 54.9 °F - 39.4 °F 56% 29.70 in 10.0 mi East 8.1 mph - N/A   Clear
12:55 AM 54.7 °F - 39.6 °F 57% 29.69 in 10.0 mi East 8.1 mph - N/A   Clear
1:15 AM 55.2 °F - 39.6 °F 56% 29.69 in 10.0 mi SE 8.1 mph - N/A   Clear
1:35 AM 54.0 °F - 40.1 °F 59% 29.70 in 10.0 mi SE 6.9 mph - N/A   Clear
1:55 AM 54.1 °F - 39.6 °F 58% 29.69 in 10.0 mi ESE 10.4 mph - N/A   Clear
2:15 AM 53.6 °F - 39.6 °F 59% 29.68 in 10.0 mi ESE 11.5 mph - N/A   Clear
2:35 AM 52.9 °F - 39.4 °F 60% 29.67 in 10.0 mi ESE 8.1 mph - N/A   Clear
2:55 AM 53.2 °F - 39.6 °F 60% 29.66 in 10.0 mi ESE 10.4 mph - N/A   Clear
3:15 AM 51.4 °F - 39.6 °F 64% 29.66 in 10.0 mi East 8.1 mph - N/A   Clear
3:35 AM 50.9 °F - 40.1 °F 67% 29.64 in 10.0 mi ESE 10.4 mph - N/A   Clear
3:55 AM 51.4 °F - 40.1 °F 65% 29.63 in 10.0 mi ESE 9.2 mph - N/A   Clear
4:15 AM 50.5 °F - 40.3 °F 68% 29.63 in 10.0 mi ESE 9.2 mph - N/A   Clear
4:35 AM 50.9 °F - 41.0 °F 69% 29.62 in 10.0 mi ESE 6.9 mph - N/A   Clear
4:55 AM 50.7 °F - 41.4 °F 70% 29.62 in 10.0 mi ESE 9.2 mph - N/A   Clear
5:15 AM 50.2 °F - 41.5 °F 72% 29.61 in 10.0 mi ESE 8.1 mph - N/A   Clear
5:35 AM 49.1 °F - 41.7 °F 76% 29.60 in 10.0 mi ESE 8.1 mph - N/A   Clear
5:55 AM 49.6 °F - 42.1 °F 75% 29.59 in 10.0 mi ESE 9.2 mph - N/A   Clear
6:15 AM 49.8 °F - 42.1 °F 75% 29.59 in 10.0 mi ESE 8.1 mph - N/A   Clear
6:35 AM 50.0 °F - 42.4 °F 75% 29.58 in 10.0 mi SE 8.1 mph - N/A   Clear
6:55 AM 52.0 °F - 43.0 °F 71% 29.58 in 10.0 mi SE 9.2 mph - N/A   Clear
7:15 AM 52.7 °F - 43.5 °F 71% 29.57 in 10.0 mi ESE 10.4 mph - N/A   Clear
7:35 AM 53.6 °F - 43.7 °F 69% 29.57 in 10.0 mi ESE 10.4 mph - N/A   Clear
7:55 AM 53.6 °F - 44.2 °F 71% 29.57 in 10.0 mi SE 10.4 mph - N/A   Clear
8:15 AM 53.8 °F - 44.8 °F 72% 29.57 in 10.0 mi SE 11.5 mph - N/A   Clear
8:35 AM 54.9 °F - 45.1 °F 70% 29.56 in 10.0 mi SE 11.5 mph - N/A   Clear
9:15 AM 57.2 °F - 45.3 °F 65% 29.56 in 10.0 mi SE 13.8 mph 17.3 mph N/A   Clear
9:35 AM 58.1 °F - 45.9 °F 64% 29.55 in 10.0 mi SE 11.5 mph - N/A   Clear
9:55 AM 60.1 °F - 46.0 °F 60% 29.54 in 10.0 mi SE 13.8 mph - N/A   Clear
10:15 AM 61.7 °F - 46.6 °F 58% 29.53 in 10.0 mi SE 10.4 mph - N/A   Clear
10:35 AM 63.1 °F - 46.4 °F 54% 29.52 in 10.0 mi SE 11.5 mph 17.3 mph N/A   Clear
10:55 AM 64.4 °F - 46.2 °F 52% 29.52 in 10.0 mi SSE 10.4 mph - N/A   Clear
11:15 AM 65.8 °F - 46.6 °F 50% 29.51 in 10.0 mi SE 11.5 mph - N/A   Clear
11:35 AM 67.5 °F - 46.4 °F 47% 29.51 in 10.0 mi SE 12.7 mph - N/A   Clear
11:55 AM 68.2 °F - 46.9 °F 47% 29.50 in 10.0 mi SE 11.5 mph - N/A   Clear
12:15 PM 69.8 °F - 46.2 °F 43% 29.49 in 10.0 mi ESE 13.8 mph - N/A   Clear
12:35 PM 72.3 °F - 46.4 °F 40% 29.48 in 10.0 mi ESE 15.0 mph 19.6 mph N/A   Clear
12:55 PM 72.0 °F - 45.7 °F 39% 29.47 in 10.0 mi SE 15.0 mph 20.7 mph N/A   Clear
1:15 PM 72.7 °F - 45.5 °F 38% 29.47 in 10.0 mi SE 17.3 mph - N/A   Clear
1:35 PM 74.1 °F - 46.9 °F 38% 29.47 in 10.0 mi SE 17.3 mph - N/A   Clear
1:55 PM 74.3 °F - 47.3 °F 38% 29.47 in 10.0 mi SE 18.4 mph 26.5 mph N/A   Clear
2:15 PM 73.6 °F - 47.7 °F 40% 29.46 in 10.0 mi SSE 12.7 mph - N/A   Clear
2:35 PM 73.4 °F - 47.8 °F 40% 29.45 in 10.0 mi SSE 17.3 mph 20.7 mph N/A   Clear
2:55 PM 75.4 °F - 49.1 °F 39% 29.44 in 10.0 mi SSE 15.0 mph 18.4 mph N/A   Clear
3:15 PM 77.9 °F - 48.9 °F 36% 29.41 in 10.0 mi SE 21.9 mph 26.5 mph N/A   Clear
3:35 PM 79.9 °F - 49.5 °F 34% 29.40 in 10.0 mi SE 18.4 mph 24.2 mph N/A   Clear
3:55 PM 81.7 °F - 46.8 °F 29% 29.39 in 10.0 mi SE 18.4 mph 26.5 mph N/A   Clear
4:15 PM 82.4 °F - 49.5 °F 32% 29.38 in 10.0 mi SE 20.7 mph 27.6 mph N/A   Clear
4:35 PM 83.3 °F - 47.3 °F 28% 29.37 in 10.0 mi SE 21.9 mph 31.1 mph N/A   Clear
4:55 PM 83.1 °F - 45.5 °F 27% 29.36 in 10.0 mi SSE 13.8 mph 20.7 mph N/A   Clear
5:15 PM 82.8 °F - 50.0 °F 32% 29.35 in 10.0 mi SE 11.5 mph - N/A   Clear
5:35 PM 82.9 °F - 49.5 °F 31% 29.34 in 10.0 mi SE 13.8 mph 18.4 mph N/A   Clear
5:55 PM 82.4 °F - 45.0 °F 27% 29.33 in 10.0 mi SE 19.6 mph 25.3 mph N/A   Clear
6:15 PM 82.8 °F - 42.3 °F 24% 29.33 in 10.0 mi SE 15.0 mph 24.2 mph N/A   Clear
6:35 PM 82.6 °F - 50.2 °F 32% 29.32 in 10.0 mi ESE 13.8 mph 21.9 mph N/A   Clear
6:55 PM 81.1 °F 80.7 °F 53.8 °F 39% 29.31 in 10.0 mi ESE 15.0 mph 24.2 mph N/A   Clear
7:15 PM 80.2 °F 80.1 °F 53.8 °F 40% 29.30 in 10.0 mi ESE 10.4 mph 19.6 mph N/A   Clear
7:35 PM 79.9 °F - 49.3 °F 34% 29.30 in 10.0 mi SSE 24.2 mph - N/A   Clear
7:55 PM 79.9 °F - 47.7 °F 32% 29.30 in 10.0 mi SSE 20.7 mph 24.2 mph N/A   Clear
8:15 PM 78.6 °F - 51.1 °F 38% 29.30 in 10.0 mi SSE 19.6 mph 24.2 mph N/A   Clear
8:35 PM 77.9 °F - 51.1 °F 39% 29.30 in 10.0 mi SSE 19.6 mph - N/A   Clear
8:55 PM 77.0 °F - 52.2 °F 42% 29.30 in 10.0 mi SSE 18.4 mph - N/A   Clear
9:15 PM 76.3 °F - 53.2 °F 45% 29.30 in 10.0 mi SSE 18.4 mph 25.3 mph N/A   Clear
9:35 PM 75.6 °F - 54.7 °F 48% 29.30 in 10.0 mi SSE 24.2 mph 28.8 mph N/A   Clear
9:55 PM 75.6 °F - 55.9 °F 50% 29.30 in 10.0 mi SSE 23.0 mph 29.9 mph N/A   Clear
10:15 PM 75.4 °F - 56.5 °F 52% 29.30 in 10.0 mi SSE 25.3 mph 33.4 mph N/A   Clear
10:35 PM 74.7 °F - 57.2 °F 54% 29.30 in 10.0 mi SSE 23.0 mph 29.9 mph N/A   Clear
10:55 PM 74.1 °F - 57.7 °F 56% 29.30 in 10.0 mi SE 23.0 mph 31.1 mph N/A   Clear
11:15 PM 73.8 °F - 59.0 °F 60% 29.29 in 10.0 mi SSE 25.3 mph 31.1 mph N/A   Clear
11:35 PM 73.4 °F - 59.0 °F 61% 29.29 in 10.0 mi SSE 21.9 mph 32.2 mph N/A   Clear
11:55 PM 73.4 °F - 58.1 °F 59% 29.28 in 10.0 mi SSE 25.3 mph 34.5 mph N/A   Clear